EW6674 Weather Reports


time (UTC)temp
F
wind
direction
speed
knots
gust
knots
rain 1hr
in
rain 24hr
in
rain mn
in
humidity
%
barometer
mb
20260506204606 60 157 0.9 5.2 0.00 0.27 0.25 81 1009.2
20260506203057 60 195 1.7 3.5 0.00 0.27 0.25 79 1009.2
20260506201557 60 197 2.6 6.1 0.00 0.27 0.25 78 1009.2
20260506200056 61 177 1.7 4.3 0.00 0.27 0.25 75 1009.1
20260506194556 61 182 0.9 1.7 0.00 0.27 0.25 74 1008.8
20260506193055 61 182 0.9 5.2 0.00 0.27 0.25 74 1008.5
20260506191600 61 190 3.5 7.8 0.00 0.27 0.25 74 1008.3
20260506190055 62 182 2.6 7.8 0.00 0.27 0.25 73 1008.0
20260506184605 62 199 3.5 7.0 0.00 0.28 0.25 73 1008.1
20260506183053 62 198 4.3 10.4 0.00 0.28 0.25 73 1008.1
20260506181552 62 180 3.5 9.6 0.00 0.28 0.25 73 1008.0
20260506180052 61 161 3.5 12.2 0.00 0.28 0.25 73 1008.0
20260506174549 61 190 5.2 13.0 0.00 0.28 0.25 73 1007.9
20260506173051 61 192 4.3 7.8 0.00 0.28 0.25 73 1007.9
20260506171558 62 216 4.3 8.7 0.00 0.28 0.25 73 1007.7
20260506170052 61 200 6.1 11.3 0.00 0.28 0.25 74 1007.6
20260506164549 62 190 4.3 11.3 0.01 0.28 0.25 74 1007.6
20260506163047 62 205 6.1 11.3 0.03 0.28 0.25 75 1007.7
20260506161546 62 187 3.5 8.7 0.04 0.28 0.25 76 1007.7
20260506160058 62 190 4.3 12.2 0.04 0.28 0.25 78 1007.7
20260506154546 62 187 6.1 13.0 0.03 0.28 0.24 79 1007.6
20260506153044 63 180 5.2 10.4 0.01 0.27 0.22 81 1007.7
20260506151544 63 167 8.7 13.0 0.00 0.26 0.21 83 1007.7
20260506150042 63 172 4.3 10.4 0.00 0.26 0.21 83 1007.9
20260506144556 63 177 2.6 12.2 0.00 0.30 0.21 82 1007.9
20260506143041 63 178 7.8 13.0 0.00 0.30 0.21 82 1008.1
20260506141539 63 171 6.1 13.0 0.00 0.30 0.21 79 1008.1
20260506140038 63 162 6.1 12.2 0.00 0.30 0.21 79 1008.2
20260506134537 63 167 5.2 9.6 0.02 0.39 0.21 80 1008.3
20260506133036 63 167 6.1 13.0 0.02 0.39 0.21 81 1008.3
20260506131542 63 173 5.2 8.7 0.02 0.39 0.21 82 1008.6
20260506130034 63 196 5.2 11.3 0.02 0.39 0.21 83 1008.7
20260506124534 63 167 7.8 13.9 0.00 0.45 0.20 84 1008.8
20260506123032 64 229 7.0 16.5 0.00 0.45 0.20 84 1008.7
20260506121531 64 197 8.7 14.8 0.00 0.45 0.20 84 1008.6
20260506120030 64 182 6.1 9.6 0.00 0.45 0.20 83 1008.7
20260506114534 63 168 7.0 12.2 0.00 0.45 0.20 79 1008.7
20260506113022 62 161 7.0 15.6 0.01 0.45 0.20 76 1008.7
20260506111519 62 180 7.8 15.6 0.04 0.45 0.20 74 1008.8
20260506110021 62 185 7.0 13.0 0.07 0.45 0.20 71 1008.8
20260506104517 62 201 6.1 9.6 0.07 0.45 0.20 69 1009.0
20260506103017 62 199 4.3 7.8 0.06 0.44 0.19 72 1009.0
20260506101518 62 179 2.6 6.1 0.04 0.41 0.16 73 1009.2
20260506100022 62 148 0.9 6.1 0.01 0.38 0.13 72 1009.3
20260506094513 62 182 2.6 7.0 0.01 0.38 0.13 71 1009.4
20260506093011 61 144 5.2 7.8 0.01 0.38 0.13 72 1009.4
20260506091510 61 149 5.2 8.7 0.00 0.37 0.12 71 1009.5
20260506090009 61 132 4.3 7.8 0.00 0.37 0.12 70 1009.3
20260506084508 62 167 4.3 8.7 0.02 0.37 0.12 64 1009.3
20260506083005 61 164 4.3 10.4 0.02 0.37 0.12 63 1009.0
20260506081506 61 173 4.3 7.8 0.02 0.37 0.12 60 1009.0
20260506073058 60 138 4.3 12.2 0.01 0.35 0.10 62 1008.7
20260506071559 60 134 5.2 7.8 0.02 0.35 0.09 63 1008.9
20260506061546 59 62 3.5 7.8 0.06 0.33 0.08 72 1008.8
20260506044539 59 67 1.7 7.0 0.00 0.27 0.02 64 1009.0
20260506043031 58 38 3.5 7.0 0.00 0.27 0.02 64 1008.9
20260506041525 58 41 2.6 4.3 0.00 0.27 0.02 64 1009.0
20260506040024 58 40 3.5 5.2 0.00 0.27 0.02 65 1009.1
20260506034523 58 42 2.6 6.1 0.00 0.27 0.02 65 1009.3
20260506033031 58 58 2.6 5.2 0.01 0.27 0.02 65 1009.3
20260506031530 58 40 2.6 4.3 0.01 0.27 0.02 66 1009.5
20260506030041 58 41 2.6 4.3 0.01 0.27 0.02 66 1009.6
20260506024525 58 41 2.6 4.3 0.00 0.26 0.01 66 1009.7
20260506023016 58 44 1.7 3.5 0.00 0.26 0.01 66 1009.8
20260506021515 58 57 1.7 4.3 0.00 0.26 0.01 66 1010.0
20260506020015 58 46 1.7 4.3 0.00 0.26 0.01 66 1010.0
20260506014514 58 51 2.6 4.3 0.00 0.26 0.01 66 1010.1
20260506013013 58 59 2.6 4.3 0.00 0.26 0.01 65 1010.1
20260506011515 58 66 1.7 7.0 0.00 0.26 0.01 65 1009.9
20260506010011 58 50 1.7 5.2 0.00 0.26 0.01 64 1009.9
20260506004524 58 35 2.6 5.2 0.00 0.26 0.01 64 1010.0
20260506003006 58 22 0.9 4.3 0.00 0.26 0.01 64 1010.0
20260506001502 58 24 1.7 4.3 0.00 0.26 0.01 64 1010.2
20260506000107 58 25 0.9 2.6 0.00 0.26 0.01 64 1010.2
20260505234600 58 25 0.9 1.7 0.00 0.26 0.01 64 1010.5
20260505233116 57 25 1.7 4.3 0.00 0.26 0.01 64 1010.6
20260505231555 57 26 0.9 5.2 0.00 0.26 0.01 64 1010.6
20260505230054 57 25 3.5 5.2 0.00 0.26 0.01 64 1010.8
20260505224552 57 28 1.7 3.5 0.01 0.26 0.01 64 1010.8
20260505223052 57 28 2.6 5.2 0.01 0.26 0.01 64 1010.9
20260505221558 57 342 3.5 5.2 0.02 0.26 0.01 65 1011.0
20260505220048 57 342 2.6 5.2 0.02 0.26 0.01 66 1010.9
20260505214547 57 336 3.5 7.0 0.02 0.25 0.25 66 1011.0
20260505213048 57 317 2.6 5.2 0.02 0.25 0.25 66 1011.2
20260505211546 57 318 1.7 3.5 0.00 0.24 0.24 66 1011.2
20260505210045 57 317 0.9 7.0 0.00 0.24 0.24 66 1011.3